Location: ???????
(41.3502°N, 22.5223°E)
Time: 03:48:35
(UTC+00:00)

Daily predictions for brighter satellites

Satellite Brightness Start Highest point End
(mag) Time Altitude Azimuth Time Altitude Azimuth Time Altitude Azimuth
USA 267 4.2 01:25:37 10° NE 01:30:05 41° NNE 01:30:05 41° NNE
Cosmos 2344 3.6 01:56:13 65° SSE 01:56:53 68° ESE 02:04:28 10° NE
USA 234 3.3 01:58:13 10° SE 02:03:49 68° SE 02:03:49 68° SE
ATLAS 5 CENTAUR R/B 4.2 02:14:24 10° ESE 02:15:24 11° ESE 02:16:26 10° E
Lacrosse 4 Rocket 3.0 02:15:30 35° NE 02:15:44 35° NE 02:19:47 10° ESE
ISS -0.7 02:25:47 13° NNE 02:25:47 13° NNE 02:26:36 10° NE
Cosmos 2221 4.4 02:27:50 22° N 02:27:50 22° N 02:29:25 10° N
S3M 3.8 02:29:13 77° W 02:29:20 78° W 02:35:32 10° N
FENGYUN 3A 4.4 02:25:29 10° NNE 02:30:48 52° E 02:34:24 20° S
Cosmos 1833 4.1 02:30:27 75° SSE 02:30:53 82° ESE 02:36:33 10° NNE
Cosmos 2237 4.1 02:30:25 48° NNW 02:32:08 89° WSW 02:37:50 10° SSE
Meteor 2-2 Rocket 4.2 02:32:28 75° W 02:32:32 75° W 02:38:35 10° N
Cosmos 1745 Rocket 3.9 02:30:38 10° NNW 02:36:55 73° W 02:39:31 38° S
Landsat 5 3.8 02:42:16 56° ENE 02:42:16 56° ENE 02:45:58 10° N
Lacrosse 5 2.9 02:42:08 24° NNW 02:44:45 43° NE 02:49:34 10° ESE
Sich 1 4.4 02:41:38 10° N 02:45:48 39° ENE 02:49:53 10° SSE
Cosmos 1709 Rocket 4.1 02:42:34 10° N 02:49:00 82° E 02:55:23 10° S
ALOS 2.4 02:44:57 10° NNE 02:49:39 72° ESE 02:51:39 34° S
Cosmos 2360 Rocket 2.0 02:45:01 10° NNW 02:50:41 77° WSW 02:56:20 10° SSE
ARIANE 5 R/B 4.5 02:52:02 10° NNW 02:53:21 15° NNW 02:53:21 15° NNW
USA 238 DEB 4.1 02:48:49 10° NNW 02:56:07 72° NE 03:03:43 10° SE
USA 238 4.1 02:48:56 10° NNW 02:56:14 71° NE 03:03:47 10° SE
CZ-2C R/B 2.9 02:56:02 10° N 02:59:46 40° NW 02:59:46 40° NW
CZ-4B R/B 4.5 02:59:17 10° ESE 03:01:13 16° ENE 03:03:07 10° NNE
USA 276 3.0 03:03:56 45° NNE 03:03:56 45° NNE 03:06:23 10° NE
CZ-4C R/B 2.5 03:04:17 22° S 03:07:19 57° ESE 03:12:48 10° NE
OAO 3 Rocket 4.1 03:06:24 33° SSW 03:07:25 37° S 03:11:51 10° ESE
SeaSat 1 3.6 03:02:48 10° SE 03:07:27 44° ENE 03:12:07 10° NNW
H-2A R/B 2.2 03:03:29 10° SSE 03:07:43 69° ENE 03:11:53 10° N
Cosmos 2333 Rocket 2.5 03:06:39 10° NNW 03:12:26 72° ENE 03:18:11 10° SSE
Cosmos 1437 Rocket 4.4 03:12:15 10° SSE 03:16:01 37° E 03:19:47 10° NNE
Cosmos 1151 Rocket 4.2 03:11:59 10° SSE 03:16:05 45° E 03:20:12 10° NNE
Cosmos 1484 Rocket 2.6 03:14:59 10° N 03:18:40 62° WNW 03:19:29 47° SW
Cosmos 1782 4.3 03:15:41 10° SSE 03:19:19 37° E 03:22:59 10° NNE
Cosmos 1633 Rocket 4.2 03:16:06 10° N 03:20:20 45° ENE 03:24:32 10° SSE
MOS 1 Rocket 4.1 03:16:29 10° SSE 03:20:41 50° ENE 03:25:05 10° N
Cosmos 2251 Rocket 3.7 03:18:56 32° SW 03:21:10 52° WNW 03:26:25 10° N
BREEZE-M DEB (TANK) 4.2 03:22:53 24° WNW 03:24:25 29° NNW 03:27:01 10° NE
NOSS 3-2 (A) 4.1 03:18:31 10° NW 03:26:13 68° WSW 03:34:46 10° SSE
Cosmos 2297 Rocket 4.4 03:23:49 10° SSE 03:28:26 27° ESE 03:33:05 10° NE
CZ-4B R/B 3.6 03:26:02 10° NNE 03:29:44 82° E 03:33:22 10° S
Geosat 4.4 03:25:12 10° NNE 03:29:57 43° WNW 03:32:20 26° WSW
Meteor 2-17 Rocket 4.4 03:25:59 10° NNW 03:31:53 55° W 03:37:44 10° SSW
COSMOS 2487 3.5 03:35:20 26° NW 03:35:20 26° NW 03:37:52 10° N
Cosmos 2219 Rocket 2.1 03:29:55 10° NNW 03:35:36 87° WSW 03:41:17 10° SSE
Cosmos 614 Rocket 4.2 03:36:57 14° SW 03:41:17 51° WNW 03:46:23 10° N
Cosmos 1606 4.0 03:42:17 22° WNW 03:42:17 22° WNW 03:45:12 10° NNW
Cosmos 2315 Rocket 4.4 03:37:27 10° SW 03:43:12 39° WNW 03:49:00 10° N
COSMOS 2428 2.7 03:37:31 10° NNW 03:43:16 89° WSW 03:48:59 10° SSE
CENTAUR R/B 3.2 03:35:01 10° NW 03:43:20 78° WSW 03:52:15 10° SSE
Cosmos 407 Rocket 3.4 03:40:46 10° SSW 03:45:58 82° WNW 03:51:09 10° NNE
USA 234 4.3 03:43:29 10° S 03:48:19 22° WSW 03:51:14 17° W
GPS 2-04 Rocket1 3.6 03:48:09 18° SW 03:50:19 34° S 03:53:51 10° ESE
Iridium 51 4.1 03:47:21 10° N 03:51:04 59° W 03:54:32 10° S
Cosmos 1328 Rocket 3.4 03:47:31 10° S 03:51:49 86° W 03:56:09 10° N
Meteor 1-25 Rocket 4.1 03:48:12 10° NNW 03:53:42 64° W 03:59:10 10° S
Lacrosse 4 Rocket 2.6 03:51:57 16° WNW 03:54:13 23° WSW 03:57:40 10° SSW
BREEZE M DEB (TANK) 3.8 03:51:34 11° NW 03:54:15 41° NNE 04:01:49 10° E
CSL-04 DEB 4.2 03:50:29 10° S 03:54:27 77° WSW 03:58:24 10° NNW
Cosmos 1190 Rocket 4.0 03:50:12 10° SSW 03:55:31 88° WNW 04:00:52 10° NNE
ATLAS 5 CENTAUR R/B 1.4 03:55:37 12° SW 03:59:13 60° NW 04:03:32 10° NNE
Milstar 3 Cent rocket 3.7 03:57:18 10° SW 04:00:33 18° S 04:03:52 10° SE
NOSS 3-4 (A) 3.4 03:55:31 10° SW 04:01:17 65° NW 04:07:30 10° NNE
NOSS 3-4 (C) 3.4 03:55:36 10° SW 04:01:23 66° NW 04:07:35 10° NNE
ERS-2 3.6 03:58:28 10° SE 04:01:53 40° ENE 04:05:19 10° N
ISS -2.1 03:59:12 10° NW 04:02:14 30° NNE 04:05:16 10° E
Cosmos 1602 3.7 03:58:38 10° NNW 04:02:32 63° W 04:06:23 10° S
Cosmos 1470 Rocket 3.7 03:58:40 10° N 04:03:02 76° E 04:07:20 10° SSE
COSMO-SKYMED 1 2.6 03:59:00 10° S 04:03:16 60° W 04:07:35 10° NNW
Cosmos 2219 4.2 03:59:20 10° S 04:04:48 51° ESE 04:10:15 10° NNE
Cosmos 2322 4.2 04:00:53 10° NW 04:06:05 38° WSW 04:11:14 10° S
Cosmos 1933 4.2 04:02:39 10° SW 04:06:07 28° WNW 04:09:37 10° NNW
NOSS 3-2 (C) 4.2 03:59:11 10° NW 04:06:51 62° WSW 04:15:20 10° SSE
Cosmos 2074 Rocket 4.0 04:02:36 10° NNW 04:08:43 63° W 04:14:49 10° S
PSLV R/B 4.4 04:06:47 10° SSE 04:10:56 68° ENE 04:15:05 10° N
Cosmos 2154 Rocket 4.1 04:07:15 10° N 04:13:31 89° W 04:19:48 10° S
deb Chang Zheng 4 3.5 04:09:20 10° N 04:13:38 78° WNW 04:17:56 10° SSW
Meteor 1-14 Rocket 4.3 04:08:12 10° N 04:13:53 87° W 04:19:40 10° S
RESURS DK-1 3.6 04:10:54 10° S 04:14:50 46° ESE 04:18:47 10° NE
ATLAS 2AS CENTAUR R/B 3.1 04:08:08 10° SW 04:16:03 81° NW 04:23:57 10° NNE
Envisat 3.1 04:12:34 10° NNE 04:17:41 86° ESE 04:22:46 10° SSW
YAOGAN 6 2.4 04:18:29 10° N 04:22:00 78° WNW 04:25:27 10° SSW
Sich 1 4.5 04:20:12 10° NW 04:23:06 17° W 04:25:59 10° SW
Cosmos 1933 Rocket 3.7 04:19:10 10° N 04:23:38 84° E 04:28:06 10° S
Cosmos 1666 Rocket 4.5 04:21:15 10° NNW 04:24:56 27° W 04:28:38 10° SSW
ALOS 4.1 04:24:23 10° NW 04:26:26 13° WNW 04:28:29 10° W
ADEOS 4.4 04:22:30 10° N 04:26:59 29° WNW 04:31:26 10° SW
H-2A R/B 3.1 04:23:52 10° N 04:27:37 45° WNW 04:31:19 10° SSW
Lacrosse 5 2.6 04:23:03 10° WNW 04:27:38 35° SW 04:32:11 10° S
SJ-7 4.3 04:23:37 10° N 04:27:38 78° WNW 04:31:40 10° SSW
Okean O Rocket 4.2 04:24:49 10° NE 04:28:35 27° E 04:32:20 10° SSE
Cosmos 1140 Rocket 4.0 04:24:18 10° SW 04:29:10 40° WNW 04:34:03 10° N
Meteor 1-31 Rocket 4.2 04:27:28 10° NNW 04:30:13 19° WNW 04:32:57 10° WSW
Cosmos 2184 Rocket 4.4 04:27:19 10° NNW 04:33:13 42° W 04:39:08 10° SSW
